Regional Weather Roundup
Issued by NWS Northern Indiana

Home | Current Version | Previous Version | Graphics & Text | Print | Product List | Glossary On
Versions: 1 2 3 4 5 6 7 8 9 10 11 12 13 14 15 16 17 18 19 20 21 22 23 24 25 26 27 28 29 30 31 32 33 34 35 36 37 38 39 40 41 42 43 44 45 46 47 48 49 50
000
ASUS43 KIWX 261900
RWRIWX

KIWX WEATHER ROUNDUP
NATIONAL WEATHER SERVICE NORTHERN INDIANA
200 PM EST WED NOV 26 2014

NOTE: "FAIR" INDICATES FEW OR NO CLOUDS BELOW 12,000 FEET WITH NO
SIGNIFICANT WEATHER AND/OR OBSTRUCTIONS TO VISIBILITY.

* THESE STATIONS ARE NOT UNDER NWS QUALITY CONTROL. THEY ALSO MAY NOT
  REPORT WEATHER SUCH AS PRECIPITATION OR FOG.

INZ001>027-262000-
NORTHERN INDIANA

CITY           SKY/WX    TMP DP  RH WIND       PRES   REMARKS
GARY*          CLOUDY    28  19  69 E7        30.12F WCI  21
SOUTH BEND     CLOUDY    28  20  71 S3        30.12S
ELKHART*       CLOUDY    28  18  64 S3        30.12S
GOSHEN         CLOUDY    28  20  71 S3        30.11R
ANGOLA*        CLOUDY    27  19  74 SE5       30.08F WCI  21
FORT WAYNE     CLOUDY    29  21  72 E3        30.11S
PERU/GRISSOM   CLOUDY    28  24  85 E6        30.09F WCI  22

$$
INZ028>050-262000-
CENTRAL INDIANA

CITY           SKY/WX    TMP DP  RH WIND       PRES   REMARKS
LAFAYETTE      PTSUNNY   29  21  72 SE5       30.09F WCI  24
KOKOMO*        CLOUDY    28  21  74 E6        30.09F WCI  22
MUNCIE*        CLOUDY    29  21  72 CALM      30.09S
INDIANAPOLIS   PTSUNNY   32  22  66 E7        30.06F WCI  26

$$
MIZ043>046-050>051-056>058-064>065-071>073-077>080-262000-
SOUTHWEST LOWER MICHIGAN

CITY           SKY/WX    TMP DP  RH WIND       PRES   REMARKS
BATTLE CREEK   CLOUDY    31  19  61 VRB5      30.10S WCI  26
BENTON HARBOR  CLOUDY    27  19  72 S5        30.13S WCI  22
COLDWATER*     CLOUDY    31  21  68 SE5       30.09S WCI  26
HILLSDALE*     CLOUDY    30  21  69 SE5       30.07F WCI  25
HOLLAND        CLOUDY    31  21  66 CALM      30.13S
GRAND RAPIDS   CLOUDY    30  20  66 CALM      30.12S
KALAMAZOO      CLOUDY    29  20  69 S6        30.11S WCI  23
STURGIS*       CLOUDY    27  21  80 CALM      30.10R
THREE RIVERS*  CLOUDY    29  21  72 CALM      30.11R

$$
OHZ001>008-015>018-024>025-262000-
NORTHWEST OHIO

CITY           SKY/WX    TMP DP  RH WIND       PRES   REMARKS
DEFIANCE       CLOUDY    32  23  69 E7        30.09F WCI  26
FINDLAY        CLOUDY    35  25  66 NE8       30.06F WCI  29
TOLEDO EXPRESS CLOUDY    32  23  69 E6        30.09F WCI  26
TOLEDO METCALF CLOUDY    33  23  66 N5        30.11F WCI  29
LIMA           CLOUDY    33  23  66 SE5       30.07F WCI  29

$$
AND FOR LAKE MICHIGAN COASTAL AND OPEN LAKE BUOY OBSERVATIONS

STATION/POSITION TEMP    WIND        PRES    VSBY  WAVE
                 AIR SEA DIR/SP/G                  HT/PER
                 (F)     (DEG/KT/KT) (MB)    (MI)  (FT/S)
CALUMET HARBOR    26     100/  5/  7 1018.7F
MICHIGAN CITY     26     140/  7/ 11   N/A
SAINT JOSEPH      28     110/  2/  8 1020.3S
SOUTH LAKE BUOY   30 42  170/ 10/ 12 1021.1F         1/ 3

$$
&&


USA.gov is the U.S. government's official web portal to all federal, state and local government web resources and services.